Wind_Speed
80 85 77 78 94 90 91 87 80 77 76 67 65 60 59 58 56 54 48 42 40 41 39 39 33 30 27 26 25 32 26 24 24 22 19 17 16 16 15 13 13 14 16 15 13
86 83 79 73 79 97 75 88 77 76 81 78 69 62 60 58 56 55 49 47 46 43 39 39 35 32 32 30 23 30 29 26 25 27 20 19 17 17 17 14 15 18 17 16 15
83 89 73 79 77 92 91 68 79 66 78 79 72 66 63 60 58 53 52 50 47 45 38 39 38 36 35 30 27 28 30 24 24 24 23 21 19 21 18 16 20 20 18 17 16
81 82 77 66 75 77 92 79 62 72 67 74 72 66 64 63 59 53 53 51 50 46 42 40 40 39 36 32 25 23 28 28 28 26 24 24 23 22 20 23 21 21 19 17 16
74 82 96 66 73 70 81 87 63 67 64 61 68 62 65 65 59 53 54 52 52 49 43 40 40 37 36 30 29 23 22 28 29 26 29 27 26 25 24 24 23 23 22 20 16
70 81 92 66 67 74 74 81 83 55 63 56 61 61 63 62 52 51 52 50 50 49 45 42 41 36 37 34 32 33 31 27 33 30 27 32 30 31 27 27 26 27 24 22 20
70 76 90 70 65 68 74 64 67 71 52 57 56 55 58 55 55 52 51 51 50 49 48 44 41 39 38 35 35 30 32 30 25 30 32 33 33 31 30 30 29 31 27 25 22
68 62 91 91 64 70 70 67 62 73 53 47 49 55 57 50 53 52 50 51 52 51 50 49 45 44 40 39 36 37 39 37 32 34 26 32 31 36 33 32 31 33 28 27 25
57 62 65 81 68 62 61 66 60 60 62 60 54 57 58 53 52 51 53 49 50 53 53 50 48 47 43 40 41 44 42 34 35 31 31 23 14 35 34 32 34 34 31 30 28
57 59 71 68 54 58 61 64 59 58 62 66 61 62 57 52 51 51 52 51 49 53 52 51 50 50 47 46 47 44 37 30 27 21 21 26 15 21 35 35 36 36 36 34 30
55 57 68 78 50 52 63 68 67 72 71 67 63 55 52 54 57 53 54 49 49 51 52 51 50 49 46 42 40 35 34 33 34 29 30 26 27 22 38 41 42 41 39 36 33
54 52 75 70 53 55 62 72 71 60 63 62 57 52 48 61 61 57 55 50 48 49 48 48 47 46 43 41 41 42 42 44 37 37 39 31 29 29 35 45 42 45 43 40 40
51 46 66 83 67 47 66 69 66 62 61 63 63 60 61 61 61 59 54 51 52 48 45 44 43 42 44 42 44 44 45 40 34 37 40 33 32 35 32 45 44 45 44 44 42
53 53 57 63 59 61 65 68 63 56 60 68 69 72 62 62 68 65 63 57 53 48 47 47 40 42 42 42 42 43 42 41 38 38 42 39 42 32 33 26 43 46 47 46 45
66 45 45 49 60 63 68 67 60 56 64 68 68 63 66 68 67 70 68 63 57 52 50 46 41 40 42 39 43 44 43 40 39 40 42 44 49 32 31 32 29 42 51 47 46
69 59 58 56 55 62 67 65 61 67 74 73 79 74 67 67 71 68 66 67 60 59 55 54 50 49 44 47 47 47 45 43 42 42 46 45 47 48 32 28 28 26 52 50 47
65 55 61 55 56 66 68 70 71 74 70 73 77 77 69 70 65 69 66 64 62 58 58 53 57 52 52 53 55 52 49 49 48 49 50 47 49 48 36 30 33 29 40 54 50
65 65 58 63 59 63 74 78 73 77 77 70 69 65 63 62 69 73 66 62 58 59 55 56 57 55 56 58 56 54 53 56 54 52 47 47 49 44 36 32 32 32 31 50 53
68 67 60 70 68 66 76 83 73 76 71 72 62 67 67 65 64 61 61 59 58 56 57 58 61 57 58 58 59 59 57 51 55 53 55 51 48 47 38 34 32 35 30 36 52
71 68 65 75 70 71 62 76 79 82 78 73 64 63 57 54 60 62 61 57 57 58 58 61 58 59 56 58 59 56 52 53 54 57 59 52 50 46 47 43 37 39 35 33 45
77 73 69 76 69 75 73 70 74 69 69 72 69 61 58 58 55 54 58 59 60 60 57 60 61 61 60 62 61 57 59 55 55 51 55 53 51 47 43 45 42 34 37 38 35
69 71 67 71 77 72 76 66 66 72 65 61 66 67 54 50 47 49 45 47 54 51 50 51 52 53 52 52 51 52 52 53 51 57 54 53 46 49 49 50 46 48 50 48 41
58 66 70 75 77 77 71 70 65 66 65 66 60 59 55 51 43 41 31 34 38 44 45 45 48 49 49 48 48 52 51 52 55 58 60 57 42 47 47 49 54 56 53 52 56
53 61 72 73 77 71 69 64 67 65 59 62 57 57 54 47 40 40 39 40 39 40 41 44 44 43 44 41 40 41 43 41 43 48 56 62 48 49 48 44 46 56 58 57 59
46 54 60 69 78 70 66 63 63 62 59 57 53 50 48 45 44 46 43 40 42 40 40 42 43 43 47 50 49 47 45 43 46 46 53 56 58 58 59 55 45 44 49 56 52
53 57 68 70 79 72 71 67 63 58 57 55 54 53 50 47 46 40 38 37 36 37 38 43 42 39 41 43 45 49 50 50 48 44 46 51 55 54 56 50 40 45 47 54 52
48 48 69 74 80 77 73 65 62 60 57 53 50 50 49 47 42 33 31 29 34 35 38 40 40 40 42 42 44 46 43 44 46 47 45 49 44 44 51 53 50 46 46 49 50
Wind_Direction
223 220 216 220 226 223 222 226 228 225 222 223 219 219 217 216 215 215 218 219 217 216 216 214 212 211 219 221 220 223 229 224 227 233 226 226 228 237 233 235 244 228 210 199 199
219 210 209 214 215 223 222 224 226 228 223 225 224 222 221 218 218 216 219 218 219 219 219 215 215 211 222 223 232 231 220 225 230 237 234 225 232 239 232 231 233 226 213 196 193
222 213 205 218 223 225 222 219 225 223 223 225 225 224 224 221 220 217 218 219 220 219 217 217 217 213 218 224 234 225 216 214 229 238 241 243 232 235 234 229 226 225 213 199 192
222 214 204 194 202 220 221 220 224 222 227 225 225 224 225 225 222 217 218 219 219 220 219 215 216 218 219 219 232 230 231 218 230 237 244 245 237 238 230 229 226 220 213 206 205
220 213 208 197 197 212 221 221 220 223 221 223 224 221 224 226 224 218 219 218 219 219 221 220 222 224 226 227 226 235 234 234 233 240 232 249 231 231 234 232 227 219 210 205 200
215 215 210 184 184 198 203 219 217 221 220 219 223 218 225 225 221 221 219 216 218 219 219 220 223 226 226 228 225 235 243 244 238 235 235 241 239 224 231 234 225 224 216 213 203
212 217 220 198 187 195 208 207 210 219 226 217 220 222 227 225 220 222 216 214 217 220 222 220 220 223 224 230 228 230 232 234 242 245 234 234 241 224 225 230 223 228 217 216 212
212 215 212 212 197 187 191 197 209 221 213 211 212 219 226 220 218 219 217 214 214 217 219 221 219 222 222 227 228 226 234 237 241 243 239 230 230 219 219 226 224 228 223 224 212
213 215 218 214 202 185 186 195 202 206 222 218 211 207 216 214 212 216 219 214 214 218 221 221 222 225 225 227 231 232 233 239 246 252 235 234 227 233 216 229 226 226 226 226 222
210 212 211 194 180 183 193 196 197 209 203 198 200 205 213 214 215 215 217 219 213 216 218 221 223 226 227 228 233 240 245 246 246 235 244 243 240 246 216 225 231 228 229 227 224
207 209 213 217 183 186 192 193 194 198 197 192 197 208 213 210 209 209 212 218 216 214 217 221 224 228 233 233 236 234 235 235 237 250 257 247 240 241 224 217 229 228 229 228 225
201 205 208 180 190 191 191 194 198 207 199 192 194 205 208 200 203 206 209 213 215 217 219 220 224 224 229 228 233 233 233 245 251 253 256 253 243 233 241 214 225 228 227 225 227
199 192 207 197 201 193 194 196 198 199 200 194 185 198 210 200 202 204 208 210 211 213 214 220 224 224 225 228 229 234 237 244 248 248 249 249 243 236 237 227 221 231 230 230 231
184 176 184 192 189 189 193 191 196 196 198 198 191 197 205 204 202 204 204 206 205 206 209 212 215 220 222 226 231 235 237 241 245 243 247 255 256 241 234 238 236 229 234 233 233
178 178 190 179 187 191 186 189 193 193 200 199 198 203 207 201 201 202 204 202 205 214 216 218 216 216 220 222 228 234 234 234 242 246 248 249 257 244 246 246 257 246 236 234 236
179 190 200 191 193 189 187 192 189 195 201 200 201 198 201 200 202 206 203 204 205 208 212 217 218 216 218 221 222 226 232 234 238 241 245 248 256 246 250 259 262 260 237 237 236
174 180 193 191 190 186 182 186 191 194 198 202 200 204 214 215 212 206 208 208 208 209 211 214 217 216 217 218 223 226 230 231 234 232 246 248 249 252 259 256 261 265 246 240 237
176 184 174 186 168 189 185 191 195 197 203 194 196 194 192 195 205 211 209 210 211 212 218 216 215 215 218 219 225 226 229 230 232 235 241 246 247 256 267 270 264 264 259 246 243
182 176 187 176 177 189 192 191 201 198 198 200 204 212 216 217 210 207 210 213 216 217 216 216 217 221 224 224 228 227 227 234 235 234 239 238 246 254 263 264 267 261 257 250 245
183 181 185 177 180 185 194 196 200 199 201 206 207 201 200 203 211 216 218 220 218 220 220 221 225 225 232 233 234 235 236 236 235 237 238 234 238 243 249 267 269 261 267 260 246
179 184 177 181 185 191 196 199 200 198 202 206 207 213 212 217 215 212 217 211 217 223 224 224 227 229 234 230 231 238 240 240 239 235 239 239 236 241 244 249 260 259 263 270 257
183 183 185 185 187 194 198 200 203 206 201 204 211 215 215 215 215 219 223 229 228 228 229 231 235 239 240 244 241 242 242 244 241 239 242 242 231 240 243 247 253 257 260 268 269
173 175 184 190 191 188 196 200 199 198 205 209 209 207 212 212 213 205 219 225 224 225 230 229 232 237 242 246 248 245 245 247 247 242 236 242 222 234 245 253 256 258 261 265 266
180 181 178 192 196 195 197 197 197 197 205 206 214 212 210 206 213 217 214 215 217 220 223 227 230 235 240 247 250 250 250 251 253 253 248 250 227 241 245 260 271 268 268 270 273
191 179 183 189 195 194 198 197 196 200 203 208 209 205 209 213 213 213 204 206 211 216 224 230 232 234 234 236 240 245 249 251 254 256 255 242 248 245 250 258 259 259 260 263 259
186 183 183 191 191 196 198 203 199 203 204 203 203 207 209 210 215 214 211 202 216 221 224 232 235 238 239 239 241 239 243 251 253 254 255 252 251 254 255 258 257 251 244 249 253
187 184 184 189 194 198 198 205 205 209 205 204 208 208 209 211 207 206 204 208 215 223 229 235 238 238 237 239 241 242 245 246 252 254 257 255 253 245 252 255 254 252 254 253 254
Height
5593 5607 5622 5634 5644 5662 5676 5684 5696 5709 5721 5730 5742 5753 5762 5768 5774 5782 5789 5798 5801 5807 5812 5816 5820 5824 5829 5833 5836 5841 5845 5849 5854 5855 5859 5861 5863 5864 5866 5868 5871 5872 5872 5872 5874
5579 5594 5609 5620 5631 5647 5662 5675 5685 5698 5711 5720 5731 5742 5751 5762 5768 5775 5784 5789 5795 5801 5806 5812 5816 5819 5824 5830 5831 5836 5840 5845 5850 5852 5854 5858 5861 5862 5864 5866 5868 5870 5871 5870 5872
5563 5579 5593 5607 5618 5631 5650 5662 5676 5688 5699 5709 5720 5732 5742 5753 5761 5773 5777 5783 5789 5795 5801 5806 5811 5814 5819 5825 5829 5835 5837 5842 5845 5849 5851 5856 5858 5860 5863 5864 5864 5868 5869 5869 5870
5551 5568 5583 5591 5606 5621 5635 5651 5666 5678 5688 5698 5710 5721 5731 5742 5754 5764 5768 5775 5781 5787 5794 5799 5805 5810 5815 5821 5825 5829 5833 5836 5839 5844 5848 5851 5856 5859 5860 5861 5864 5867 5868 5869 5869
5539 5557 5570 5577 5592 5610 5624 5642 5656 5668 5679 5688 5701 5711 5720 5733 5747 5757 5763 5769 5773 5781 5787 5795 5800 5805 5810 5815 5821 5825 5829 5833 5834 5838 5843 5848 5851 5855 5857 5860 5863 5866 5865 5866 5869
5529 5543 5556 5562 5581 5600 5614 5631 5646 5659 5671 5680 5692 5702 5712 5727 5740 5748 5756 5763 5769 5776 5782 5790 5795 5800 5805 5810 5815 5820 5823 5828 5829 5832 5837 5843 5846 5849 5854 5858 5861 5863 5864 5866 5866
5519 5531 5542 5555 5573 5592 5606 5621 5636 5650 5662 5673 5685 5696 5706 5720 5729 5738 5747 5756 5761 5769 5776 5783 5790 5795 5801 5806 5810 5816 5819 5822 5825 5827 5830 5835 5841 5847 5849 5854 5857 5860 5861 5864 5865
5509 5520 5532 5544 5563 5580 5597 5612 5626 5641 5654 5666 5675 5685 5695 5708 5718 5729 5738 5748 5756 5762 5769 5776 5782 5787 5795 5801 5806 5809 5813 5814 5820 5822 5826 5827 5835 5839 5845 5849 5853 5857 5859 5863 5863
5500 5512 5523 5536 5556 5574 5586 5605 5620 5632 5644 5654 5659 5671 5683 5698 5708 5721 5729 5738 5749 5757 5763 5770 5775 5781 5788 5794 5799 5801 5803 5811 5817 5821 5822 5823 5828 5833 5840 5847 5850 5854 5856 5859 5861
5493 5505 5516 5532 5550 5565 5581 5600 5612 5623 5630 5637 5645 5658 5671 5690 5701 5711 5719 5730 5740 5747 5754 5760 5767 5774 5781 5785 5790 5797 5805 5813 5814 5817 5816 5819 5823 5826 5833 5841 5846 5848 5851 5855 5858
5486 5497 5510 5523 5542 5561 5575 5586 5592 5599 5611 5624 5637 5653 5669 5681 5688 5700 5709 5720 5730 5738 5746 5753 5760 5768 5775 5783 5788 5794 5797 5803 5806 5807 5808 5812 5818 5820 5824 5831 5839 5843 5847 5850 5853
5478 5490 5505 5523 5541 5555 5561 5573 5591 5614 5616 5622 5635 5646 5659 5669 5678 5687 5699 5711 5721 5730 5739 5746 5753 5762 5769 5776 5780 5786 5791 5794 5799 5802 5803 5806 5812 5814 5818 5823 5831 5837 5839 5842 5844
5470 5485 5503 5521 5535 5541 5556 5576 5583 5596 5608 5615 5625 5642 5652 5661 5670 5681 5692 5703 5713 5723 5732 5739 5749 5756 5762 5768 5773 5778 5785 5789 5794 5795 5796 5800 5803 5808 5811 5815 5822 5829 5834 5835 5839
5466 5486 5503 5516 5524 5534 5550 5566 5579 5591 5602 5609 5615 5629 5639 5649 5659 5672 5683 5695 5705 5715 5723 5730 5740 5748 5754 5761 5767 5771 5778 5779 5783 5787 5791 5794 5796 5803 5805 5810 5817 5822 5825 5830 5833
5462 5475 5494 5505 5517 5529 5548 5558 5571 5582 5587 5599 5607 5620 5630 5639 5654 5658 5672 5685 5699 5709 5717 5726 5732 5739 5747 5756 5758 5763 5767 5769 5774 5778 5782 5787 5784 5801 5803 5807 5811 5815 5820 5823 5827
5456 5471 5486 5497 5510 5528 5540 5553 5563 5572 5572 5584 5598 5609 5617 5627 5639 5654 5663 5676 5686 5696 5706 5715 5724 5729 5739 5744 5748 5750 5757 5762 5764 5768 5772 5780 5781 5785 5799 5803 5804 5804 5811 5817 5820
5449 5463 5476 5489 5506 5519 5529 5544 5546 5552 5563 5576 5591 5605 5615 5623 5634 5646 5656 5666 5675 5687 5696 5706 5714 5724 5729 5733 5734 5740 5747 5749 5753 5755 5764 5770 5773 5781 5791 5796 5799 5800 5802 5807 5811
5443 5457 5469 5487 5498 5513 5523 5534 5537 5547 5558 5574 5587 5598 5607 5617 5629 5638 5648 5660 5672 5682 5692 5698 5705 5714 5718 5722 5728 5732 5737 5737 5740 5746 5757 5759 5768 5777 5781 5787 5791 5794 5794 5797 5802
5437 5451 5466 5481 5488 5500 5514 5517 5529 5542 5557 5570 5581 5591 5600 5609 5623 5633 5647 5657 5664 5675 5683 5688 5694 5703 5710 5712 5716 5721 5725 5730 5732 5736 5742 5749 5761 5769 5772 5780 5782 5785 5785 5788 5791
5431 5447 5463 5477 5487 5497 5507 5515 5524 5538 5552 5565 5576 5586 5598 5609 5621 5631 5641 5651 5658 5665 5670 5680 5686 5693 5696 5700 5706 5715 5722 5721 5724 5728 5731 5739 5745 5757 5765 5766 5773 5777 5778 5777 5778
5429 5447 5459 5473 5483 5490 5498 5507 5523 5535 5549 5559 5572 5585 5597 5605 5614 5625 5635 5642 5648 5655 5661 5669 5678 5682 5684 5691 5698 5704 5706 5711 5715 5719 5722 5730 5739 5746 5755 5758 5762 5766 5767 5768 5767
5425 5441 5454 5467 5473 5482 5494 5506 5519 5530 5542 5557 5570 5583 5593 5600 5608 5621 5630 5639 5644 5651 5656 5662 5669 5673 5680 5683 5689 5693 5697 5701 5705 5712 5714 5721 5730 5737 5743 5746 5748 5752 5754 5755 5756
5420 5435 5446 5452 5462 5476 5489 5501 5514 5526 5539 5549 5561 5574 5586 5596 5606 5616 5626 5632 5638 5643 5647 5654 5657 5664 5669 5676 5680 5685 5690 5696 5696 5698 5702 5707 5725 5729 5733 5735 5733 5734 5737 5742 5743
5418 5428 5436 5447 5461 5476 5485 5496 5509 5522 5535 5546 5558 5567 5578 5589 5600 5609 5619 5626 5632 5636 5640 5645 5652 5659 5665 5672 5674 5675 5679 5683 5684 5685 5703 5700 5718 5719 5722 5725 5725 5725 5726 5729 5729
5410 5421 5430 5440 5455 5470 5484 5495 5504 5516 5529 5540 5552 5564 5578 5584 5593 5604 5608 5614 5620 5625 5630 5637 5643 5648 5652 5658 5663 5667 5669 5669 5674 5688 5681 5708 5699 5710 5710 5709 5712 5713 5713 5714 5715
5406 5414 5422 5434 5450 5464 5475 5487 5501 5512 5526 5538 5550 5561 5571 5580 5590 5594 5598 5603 5610 5617 5623 5629 5636 5640 5645 5649 5652 5655 5659 5665 5672 5674 5678 5690 5692 5700 5699 5696 5696 5698 5698 5699 5705
5398 5409 5419 5430 5444 5457 5472 5485 5499 5511 5522 5534 5544 5555 5564 5573 5580 5589 5593 5599 5606 5611 5617 5624 5631 5634 5637 5639 5640 5642 5657 5657 5664 5663 5674 5673 5694 5677 5682 5680 5679 5680 5683 5691 5694